sat.trackr.live / text

‹ back to catalog

STARLINK-37776

NORAD 69343 · 2026-122Q

PAYLOAD ACTIVE UNKNOWN

§ Identity

Operator
Country
US
Launch date
2026-06-03
Launch site
AFWTR
Launch vehicle
Mass (kg)
RCS (m²)

Purposes: comms

External: N2YO · Heavens-Above · Gunter

§ Orbital elements

Epoch: 2026-09-20T01:36:01.057824Z

Period
93.91 min
Inclination
97.2839°
Eccentricity
0.0000597
Mean motion
15.33442787 rev/d
Perigee alt
465.1 km
Apogee alt
466.0 km
Semi-major
6,843.7 km
B*
5.9343e-4
RAAN
291.7056°
Arg perigee
142.8066°
Mean anomaly
217.3218°
Rev number
1,673

§ Raw data

STARLINK-377761 69343U 26122Q   26263.06667891  .00019130  00000+0  59343-3 0  99902 69343  97.2839 291.7056 0000597 142.8066 217.3218 15.33442787 16738

JSON: /api/v1/satellites/69343 · /tle

For live sub-satellite position, see the globe view (requires WebGL).

§ Visibility from observer

Set your observer location to see the next 7 days of passes ≥ 10°. The values pass through the URL so the page stays shareable.

No JS? Fill the form by hand. The geolocation button needs JavaScript.